Location: Staunton
(38.1490°N, 79.0720°W)
Time: 15:13:38
(UTC-04:00)

N. Korean satellite - Pass Details

Date: 20 September 2021
Orbit: 450 x 495 km, 97.3° (Epoch: 16 October)

Event Time Altitude Azimuth Distance (km) Brightness Sun altitude
Rises 06:34:53 0° 10° (N) 2,507 10.4 -6.3°
Reaches altitude 10° 06:36:56 10° 9° (N) 1,635 9.4 -5.9°
Maximum altitude 06:40:27 81° 282° (WNW) 485 6.5 -5.2°
Drops below altitude 10° 06:43:59 10° 196° (SSW) 1,648 9.1 -4.5°
Sets 06:46:03 0° 195° (SSW) 2,531 10.0 -4.1°
